{"data":{"norad_id":67671,"intl_designator":"2026-022Z","name":"STARLINK-36297","alt_names":[],"object_type":"PAYLOAD","status":"ACTIVE","operator":null,"country":"US","launch_date":"2026-02-02","launch_site_code":"AFWTR","launch_vehicle":null,"mission":null,"orbit_class":"UNKNOWN","rcs_meters":null,"size_class":null,"mass_kg":null,"dimensions":null,"purposes":["comms"],"wikipedia_slug":null,"has_3d_model":false,"image_url":null,"decayed_at":null,"tle_current":{"epoch":"2026-05-25T01:50:00.995424Z","epoch_age_seconds":65126,"freshness":"FRESH","line1":"1 67671U 26022Z   26145.07640041  .00011639  00000+0  36217-3 0  9990","line2":"2 67671  97.2832 178.4020 0001145  85.6304 274.5069 15.33455788 17289","mean_motion":15.33455788,"eccentricity":0.0001145,"inclination_deg":97.2832,"raan_deg":178.402,"arg_perigee_deg":85.6304,"mean_anomaly_deg":274.5069,"bstar":0.00036217,"rev_number":1728,"period_min":93.905544018202,"perigee_km":464.72747946347,"apogee_km":466.29467487314,"semimajor_km":6843.6480771683,"source":"CELESTRAK","updated_at":"2026-05-25T13:38:21.661762Z"}}}